Meteo Giornale » Osservazioni meteo Francia » Parigi-Orly

ore: 11:30 - Osservazioni Meteo Parigi-Orly
Lat. 48° 44' N Lon. 2° 24' E Alt. 89 metri s.l.m.

coperto Europe/Paris

20 °C

Coperto

Temp. 24 Ore

15 °C

25 °C

Ovest/Nord-Ovest

7.4 Km/h

Dew point 16 °C

Umidità 77 %

Visibilità  10 Km

Il sole sorge alle ore 05:45

Il sole tramonta alle ore 21:58

Data e Ora Cielo e Fenomeni T °C DP °C Um. % Pres. hPa Vis. km Vento km/h
Oggi h: 11:30 coperto Coperto 20 16 77 1026 10 O/NO 7.4
Oggi h: 11:00 coperto Coperto 19 15 77 1026 10 N 3.7
Oggi h: 10:30 coperto Coperto 19 15 77 1026 10 N 3.7
Oggi h: 10:00 coperto Coperto 19 15 77 1026 10 N 5.5
Oggi h: 09:30 coperto Coperto 18 15 82 1026 10 O/NO 7.4
Oggi h: 09:00 coperto Coperto 18 15 82 1026 10 N 3.7
Oggi h: 08:30 coperto Coperto 18 15 82 1026 10 N/NO 7.4
Oggi h: 08:00 coperto Coperto 17 15 88 1026 10 N 5.5
Oggi h: 07:30 coperto Coperto 17 15 88 1026 10 NO 7.4
Oggi h: 07:00 molto_nuvoloso Molto Nuvoloso 17 15 88 1026 10 NO 13
Oggi h: 06:30 molto_nuvoloso Molto Nuvoloso 17 15 88 1026 10 NO 11.1
Oggi h: 06:00 molto_nuvoloso Molto Nuvoloso 17 15 88 1026 10 NO 7.4
Oggi h: 05:30 molto_nuvoloso Molto Nuvoloso 17 14 82 1025 10 NO 9.3
Oggi h: 05:00 molto_nuvoloso Molto Nuvoloso 17 14 82 1025 10 NO 11.1
Oggi h: 04:30 molto_nuvoloso Molto Nuvoloso 17 14 82 1025 10 O/NO 11.1
Oggi h: 04:00 molto_nuvoloso Molto Nuvoloso 17 14 82 1025 10 O/NO 11.1
Oggi h: 03:30 molto_nuvoloso Molto Nuvoloso 18 14 77 1025 10 NO 13
Oggi h: 03:00 molto_nuvoloso Molto Nuvoloso 18 14 77 1025 10 N/NO 9.3
Oggi h: 02:30 molto_nuvoloso Molto Nuvoloso 17 14 82 1025 10 NO 9.3
Oggi h: 02:00 poco_nuvoloso Poco Nuvoloso 15 13 87 1025 10 O/NO 11.1
Oggi h: 01:30 sereno Sereno 15 12 82 1024 10 O/NO 7.4
Oggi h: 01:00 sereno Sereno 15 12 82 1024 10 N 5.5
Oggi h: 00:30 sereno Sereno 16 13 82 1024 10 N 5.5
Oggi h: 00:00 sereno Sereno 17 13 77 1024 10 NO 7.4
Ieri h: 23:30 sereno Sereno 16 13 82 1024 10 O/NO 7.4
Ieri h: 23:00 sereno Sereno 17 13 77 1024 10 N 5.5
Ieri h: 22:30 sereno Sereno 18 13 72 1024 10 N 5.5
Ieri h: 21:30 sereno Sereno 21 13 60 1023 10 O 13
Ieri h: 21:00 sereno Sereno 22 14 60 1023 10 O 14.8
Ieri h: 20:30 poco_nuvoloso Poco Nuvoloso 23 14 56 1023 10 O/NO 16.7
Ieri h: 20:00 poco_nuvoloso Poco Nuvoloso 24 14 53 1023 10 O/NO 14.8
Ieri h: 19:30 poco_nuvoloso Poco Nuvoloso 24 14 53 1023 10 O/SO 13
Ieri h: 19:00 poco_nuvoloso Poco Nuvoloso 24 14 53 1022 10 O 13
Ieri h: 18:30 nuvoloso Nuvoloso 24 15 57 1022 10 O 16.7
Ieri h: 18:00 molto_nuvoloso Molto Nuvoloso 24 14 53 1023 10 O 16.7
Ieri h: 17:30 molto_nuvoloso Molto Nuvoloso 25 15 53 1023 10 O 16.7
Ieri h: 17:00 molto_nuvoloso Molto Nuvoloso 23 14 56 1023 10 O 22.2
Ieri h: 16:30 molto_nuvoloso Molto Nuvoloso 24 15 57 1023 10 O/NO 13
Ieri h: 16:00 molto_nuvoloso Molto Nuvoloso 24 15 57 1023 10 O/NO 20.3
Ieri h: 15:00 molto_nuvoloso Molto Nuvoloso 23 16 64 1023 10 O/NO 18.5
Ieri h: 14:30 molto_nuvoloso Molto Nuvoloso 22 16 68 1023 10 O 18.5
Ieri h: 14:00 molto_nuvoloso Molto Nuvoloso 22 16 68 1023 10 O 18.5
Ieri h: 13:30 molto_nuvoloso Molto Nuvoloso 20 16 77 1023 10 O 20.3
Ieri h: 13:00 molto_nuvoloso Molto Nuvoloso 21 16 73 1023 10 O 14.8